[[{"header":{"parameterUnit":"m.s-1","parameterCategory":1,"la1":30.2992,"la2":30.254,"lo1":-89.0895,"lo2":-89.0443,"dy":0.0025,"dx":0.0025,"nx":19,"ny":19,"refTime":"2026-05-11T21:00:00:Z","depth":0,"parameterNumber":2,"parameterNumberName":"U-component_of_WINDS"},"data":[0,0,0,0.9355,0.9356,0.944,0.9441,0.9543,0.9544,0,0,0,0,0,0,0,0,0,0,0,0.9325,0.9325,0.9355,0.9356,0.944,0.9441,0.9543,0.9544,0,0,0,0,0,0,0,0,0,0,0,0.9325,0.9325,0.9326,0.9357,0.944,0.9441,0.9543,0.9482,0,0,0,0,0,0,0,0,0,0,0.9401,0.9368,0.9325,0.9326,0.9357,0.944,0.9441,0.9479,0.9485,0.9502,0,0.9515,0,0.9531,0.955,0.9551,0,0,0,0.936,0.9363,0.939,0.9326,0.9358,0.944,0.9404,0.9482,0.949,0.9511,0.9516,0.952,0.9533,0.9551,0.9551,0.9635,0.9635,0,0,0.9356,0.9338,0.9384,0.9394,0.9379,0.9401,0.9406,0.9487,0.9492,0.9517,0.9523,0.9534,0.9552,0.9552,0.9635,0.9635,0,0,0,0.934,0.9334,0.9359,0.939,0.9405,0.9403,0.9409,0.9488,0.9498,0.9524,0.9535,0.9552,0.9553,0.9635,0.9635,0.9628,0,0,0,0.9337,0.9325,0.9357,0.9347,0.9404,0.9447,0.9408,0.9492,0.9502,0.9535,0.9552,0.9554,0.9635,0.9635,0.9628,0.9628,0,0,0,0.9321,0.9323,0.9333,0.9346,0.9381,0.9447,0.9461,0.9495,0.9509,0.9551,0.9554,0.9634,0.9635,0.9628,0.9627,0.9646,0,0,0,0.9299,0.9325,0.9333,0.9367,0.938,0.9441,0.9461,0.9507,0.9542,0.9553,0.9635,0.9635,0.9628,0.9627,0.9645,0.9658,0.9661,0,0,0.9322,0.9327,0.9349,0.9358,0.9413,0.943,0.9485,0.9534,0.9555,0.9608,0.961,0.9628,0.9627,0.9646,0.9686,0.9688,0,0,0,0.935,0.9365,0.9384,0.9416,0.9455,0.9489,0.9532,0.9551,0.9597,0.9578,0.964,0.964,0.9652,0.9659,0.9661,0.9673,0.9637,0.9637,0.9637,0.9355,0.9381,0.942,0.9457,0.9489,0.9534,0.9563,0.9597,0.9613,0.9627,0.9643,0.9664,0.9672,0.9673,0.9685,0.9652,0.9652,0.9652,0.9652,0.9391,0.9418,0.9442,0.9487,0.9516,0.9555,0.9602,0.9613,0.9655,0.9654,0.9665,0.9662,0.9675,0.9687,0.9651,0.9651,0.9651,0.9651,0.9651,0.9398,0.9415,0.9438,0.949,0.9528,0.9566,0.9606,0.9631,0.9654,0.9665,0.9686,0.9686,0.9691,0.9674,0.9674,0.9674,0.9674,0.9674,0.9674,0.9395,0.9422,0.9452,0.9497,0.9523,0.9561,0.961,0.9636,0.9673,0.9688,0.9688,0.9704,0.9671,0.9663,0.9675,0.9675,0.9675,0.9675,0.9675,0.9422,0.9421,0.9467,0.9493,0.9551,0.9588,0.962,0.9674,0.97,0.972,0.9735,0.9706,0.9713,0.9712,0.9705,0.9728,0.9728,0.9728,0.9728,0.9427,0.9434,0.9489,0.953,0.9573,0.9607,0.9663,0.9703,0.9744,0.9762,0.9763,0.9756,0.9754,0.9763,0.976,0.9754,0.9789,0.9789,0.9789,0.9446,0.9459,0.9499,0.9539,0.9588,0.9629,0.9683,0.9731,0.9777,0.9792,0.9778,0.9775,0.9765,0.976,0.9772,0.9768,0.9757,0,0]},{"header":{"parameterUnit":"m.s-1","parameterCategory":1,"la1":30.2992,"la2":30.254,"lo1":-89.0895,"lo2":-89.0443,"dy":0.0025,"dx":0.0025,"nx":19,"ny":19,"refTime":"2026-05-11T21:00:00:Z","depth":0,"parameterNumber":3,"parameterNumberName":"V-component_of_WINDS"},"data":[0,0,0,-1.6186,-1.6186,-1.6208,-1.6209,-1.6187,-1.6186,0,0,0,0,0,0,0,0,0,0,0,-1.6148,-1.6147,-1.6186,-1.6186,-1.6208,-1.6209,-1.6187,-1.6186,0,0,0,0,0,0,0,0,0,0,0,-1.6149,-1.6147,-1.6146,-1.6186,-1.6208,-1.6209,-1.6187,-1.6188,0,0,0,0,0,0,0,0,0,0,-1.6175,-1.6109,-1.6148,-1.6146,-1.6186,-1.6208,-1.6209,-1.6189,-1.6188,-1.6155,0,-1.6116,0,-1.6151,-1.6181,-1.6181,0,0,0,-1.6209,-1.6109,-1.6144,-1.6146,-1.6186,-1.6208,-1.6205,-1.6189,-1.6188,-1.6153,-1.6117,-1.6117,-1.615,-1.6181,-1.618,-1.5911,-1.5909,0,0,-1.6208,-1.6135,-1.6145,-1.6142,-1.6135,-1.6204,-1.6205,-1.6189,-1.6144,-1.6117,-1.6118,-1.615,-1.618,-1.618,-1.5913,-1.591,0,0,0,-1.6189,-1.6133,-1.617,-1.6141,-1.6149,-1.6204,-1.6206,-1.6145,-1.6163,-1.6118,-1.615,-1.618,-1.6179,-1.5916,-1.5912,-1.5724,0,0,0,-1.6189,-1.6122,-1.6168,-1.6123,-1.6149,-1.6147,-1.6161,-1.6164,-1.6165,-1.615,-1.618,-1.6178,-1.5919,-1.5914,-1.5735,-1.5646,0,0,0,-1.6157,-1.6119,-1.6112,-1.6119,-1.6127,-1.6149,-1.6167,-1.6166,-1.6183,-1.6181,-1.6178,-1.5921,-1.5915,-1.5745,-1.5663,-1.5554,0,0,0,-1.6102,-1.5943,-1.6107,-1.5943,-1.6126,-1.6034,-1.6168,-1.6103,-1.6079,-1.618,-1.5918,-1.5913,-1.5748,-1.5673,-1.5563,-1.5447,-1.5392,0,0,-1.5861,-1.5911,-1.5821,-1.5968,-1.5828,-1.6036,-1.587,-1.5916,-1.5983,-1.5931,-1.5926,-1.5732,-1.5664,-1.5556,-1.5115,-1.507,0,0,0,-1.572,-1.5653,-1.5632,-1.5606,-1.5639,-1.5661,-1.5741,-1.576,-1.572,-1.5941,-1.5667,-1.5629,-1.5568,-1.5515,-1.5478,-1.543,-1.5886,-1.5887,-1.5887,-1.527,-1.5366,-1.5222,-1.532,-1.5294,-1.5381,-1.5368,-1.5408,-1.5511,-1.5444,-1.5428,-1.5149,-1.5085,-1.5057,-1.5006,-1.5377,-1.5376,-1.5375,-1.5375,-1.4923,-1.4843,-1.4988,-1.4899,-1.5002,-1.4929,-1.5008,-1.5084,-1.5031,-1.5168,-1.512,-1.5259,-1.5005,-1.4966,-1.5362,-1.5364,-1.5366,-1.5367,-1.5368,-1.4636,-1.4615,-1.4641,-1.4616,-1.4587,-1.4694,-1.4637,-1.4734,-1.4823,-1.4776,-1.4769,-1.4772,-1.4786,-1.4767,-1.4766,-1.4765,-1.4764,-1.4763,-1.4763,-1.4327,-1.4363,-1.4304,-1.4328,-1.4326,-1.4335,-1.4424,-1.4425,-1.445,-1.4524,-1.4525,-1.4633,-1.4964,-1.5044,-1.4748,-1.475,-1.4752,-1.4754,-1.4755,-1.3933,-1.4039,-1.3946,-1.3944,-1.3983,-1.3947,-1.4073,-1.4066,-1.4081,-1.405,-1.4172,-1.4402,-1.446,-1.449,-1.4556,-1.4153,-1.4153,-1.4153,-1.4152,-1.3689,-1.373,-1.3658,-1.3649,-1.3651,-1.3756,-1.365,-1.3719,-1.3806,-1.3821,-1.3895,-1.3993,-1.402,-1.4062,-1.4102,-1.4165,-1.367,-1.367,-1.367,-1.3452,-1.3498,-1.3387,-1.3476,-1.3515,-1.3546,-1.3449,-1.3432,-1.3554,-1.3652,-1.3835,-1.3856,-1.4015,-1.4062,-1.4158,-1.4217,-1.4336,0,0]}]]